Weather History for Baker, OR

Change the Weather History Date:

Tuesday, March 19, 2013

  Actual Average Record
Temperature  
Mean Temperature 32 °F 39 °F  
Max Temperature 50 °F 51 °F 71 °F (1990)
Min Temperature 14 °F 26 °F 14 °F (1965)
Degree Days  
Heating Degree Days 33 26  
Month to date heating degree days 527 548  
Since 1 July heating degree days 5919 6068  
Cooling Degree Days 0 0  
Month to date cooling degree days 0 0  
Year to date cooling degree days 0 0  
Moisture  
Dew Point 15 °F    
Average Humidity 57    
Maximum Humidity 92    
Minimum Humidity 21    
Precipitation  
Precipitation T in 0.02 in 0.32 in (1953)
Month to date precipitation 0.11 0.49  
Year to date precipitation 1.38 1.87  
Sea Level Pressure  
Sea Level Pressure 30.14 in    
Wind  
Wind Speed 9 mph (East)    
Max Wind Speed 24 mph    
Max Gust Speed 31 mph    
Visibility 10 miles    
Events Rain    
T = Trace of Precipitation, MM = Missing Value Source: NWS Daily Summary

Daily Weather History Graph

Daily Weather History Graph

Search for Another Location

Airport:

Trip Planner

Search our weather history database for the weather conditions in past years. The results will help you decide how hot, cold, wet, or windy it might be!

Date:

Astronomy

Mar. 19, 2013 Rise Set
Actual Time 6:55 AM PDT 7:02 PM PDT
Civil Twilight 6:26 AM PDT 7:32 PM PDT
Nautical Twilight 5:52 AM PDT 8:06 PM PDT
Astronomical Twilight 5:17 AM PDT 8:41 PM PDT
Moon 11:36 AM PDT (3/19) 2:07 AM PDT (3/19)
Length of Visible Light 13h 05m
Length of Day
12h 07m
Waxing Crescent, 51% of the Moon is Illuminated
Mar 19
Waxing Crescent
Mar 27
Full
Apr 2
Last Quarter
Apr 10
New
Apr 18
First Quarter

Hourly Weather History & Observations

Time (PDT) Temp. Windchill Dew Point Humidity Pressure Visibility Wind Dir Wind Speed Gust Speed Precip Events Conditions
12:53 AM 23.0 °F 14.7 °F 17.1 °F 78% 30.23 in 10.0 mi South 6.9 mph - N/A   Clear
1:53 AM 19.0 °F - 14.0 °F 81% 30.23 in 10.0 mi Calm Calm - N/A   Clear
2:53 AM 18.0 °F - 14.0 °F 84% 30.24 in 10.0 mi Calm Calm - N/A   Clear
3:53 AM 15.1 °F - 12.0 °F 88% 30.24 in 10.0 mi Calm Calm - N/A   Clear
4:53 AM 17.1 °F 8.7 °F 12.0 °F 81% 30.23 in 10.0 mi NE 5.8 mph - N/A   Clear
5:53 AM 18.0 °F 11.1 °F 15.1 °F 88% 30.25 in 10.0 mi SSW 4.6 mph - N/A   Clear
6:53 AM 17.1 °F - 14.0 °F 88% 30.27 in 10.0 mi Calm Calm - N/A   Clear
7:53 AM 23.0 °F 18.4 °F 19.0 °F 85% 30.27 in 10.0 mi NNE 3.5 mph - N/A   Clear
8:53 AM 32.0 °F 28.7 °F 21.9 °F 66% 30.27 in 10.0 mi NE 3.5 mph - N/A   Clear
9:53 AM 37.0 °F 31.6 °F 19.9 °F 50% 30.26 in 10.0 mi East 6.9 mph - N/A   Clear
10:53 AM 41.0 °F 35.2 °F 18.0 °F 40% 30.24 in 10.0 mi East 9.2 mph - N/A   Mostly Cloudy
11:53 AM 45.0 °F 39.3 °F 16.0 °F 31% 30.22 in 10.0 mi East 11.5 mph - N/A   Mostly Cloudy
12:53 PM 48.9 °F - 17.1 °F 28% 30.19 in 10.0 mi East 15.0 mph 20.7 mph N/A   Scattered Clouds
1:53 PM 48.9 °F - 16.0 °F 27% 30.16 in 10.0 mi East 18.4 mph 25.3 mph N/A   Mostly Cloudy
2:53 PM 50.0 °F - 12.0 °F 22% 30.14 in 10.0 mi ESE 15.0 mph - N/A   Mostly Cloudy
3:53 PM 48.9 °F - 10.0 °F 21% 30.12 in 10.0 mi ESE 17.3 mph - N/A   Overcast
4:53 PM 48.9 °F - 10.0 °F 21% 30.09 in 10.0 mi ESE 16.1 mph - N/A   Overcast
5:53 PM 48.0 °F - 12.0 °F 24% 30.06 in 10.0 mi ESE 13.8 mph - N/A   Overcast
6:53 PM 46.0 °F 40.6 °F 15.1 °F 29% 30.03 in 10.0 mi East 11.5 mph - N/A   Mostly Cloudy
7:53 PM 44.1 °F 38.1 °F 16.0 °F 32% 30.00 in 10.0 mi East 11.5 mph - N/A   Mostly Cloudy
8:53 PM 44.1 °F 40.1 °F 17.1 °F 34% 29.99 in 10.0 mi East 6.9 mph - N/A   Overcast
9:53 PM 44.1 °F 37.4 °F 16.0 °F 32% 29.93 in 10.0 mi East 13.8 mph - N/A   Overcast
10:53 PM 46.0 °F 39.9 °F 15.1 °F 29% 29.89 in 10.0 mi East 13.8 mph - N/A   Mostly Cloudy
11:53 PM 48.0 °F - 21.9 °F 36% 29.89 in 10.0 mi South 16.1 mph 28.8 mph 0.00 in Rain Light Rain